TimeMST,TemperatureF,Dew PointF,Humidity,Sea Level PressureIn,VisibilityMPH,Wind Direction,Wind SpeedMPH,Gust SpeedMPH,PrecipitationIn,Events,Conditions,WindDirDegrees,DateUTC
12:15 AM,48.2,15.8,27,30.30,10.0,North,11.5,-,N/A,,Clear,350,2012-11-05 07:15:00
12:35 AM,50.0,15.8,26,30.29,10.0,NNW,9.2,-,N/A,,Clear,330,2012-11-05 07:35:00
12:55 AM,46.4,15.8,29,30.29,10.0,NNW,9.2,-,N/A,,Clear,340,2012-11-05 07:55:00
1:15 AM,46.4,14.0,27,30.29,10.0,NNW,8.1,-,N/A,,Clear,340,2012-11-05 08:15:00
1:35 AM,44.6,14.0,29,30.29,10.0,NNW,8.1,-,N/A,,Clear,340,2012-11-05 08:35:00
1:55 AM,46.4,14.0,27,30.29,10.0,North,10.4,-,N/A,,Clear,350,2012-11-05 08:55:00
2:15 AM,46.4,12.2,25,30.29,10.0,North,10.4,-,N/A,,Clear,350,2012-11-05 09:15:00
2:35 AM,48.2,12.2,24,30.29,10.0,NNE,9.2,-,N/A,,Clear,20,2012-11-05 09:35:00
2:55 AM,44.6,12.2,27,30.29,10.0,North,11.5,-,N/A,,Clear,360,2012-11-05 09:55:00
3:15 AM,44.6,12.2,27,30.29,10.0,North,8.1,-,N/A,,Clear,350,2012-11-05 10:15:00
3:35 AM,44.6,12.2,27,30.29,10.0,WNW,11.5,-,N/A,,Clear,300,2012-11-05 10:35:00
3:55 AM,44.6,10.4,25,30.29,10.0,NW,11.5,-,N/A,,Clear,310,2012-11-05 10:55:00
4:35 AM,44.6,10.4,25,30.29,10.0,NNW,5.8,-,N/A,,Clear,340,2012-11-05 11:35:00
4:55 AM,44.6,10.4,25,30.29,10.0,North,8.1,-,N/A,,Clear,350,2012-11-05 11:55:00
5:15 AM,42.8,10.4,27,30.30,10.0,NNW,9.2,-,N/A,,Clear,340,2012-11-05 12:15:00
5:35 AM,41.0,10.4,29,30.30,10.0,NNW,9.2,-,N/A,,Clear,340,2012-11-05 12:35:00
5:55 AM,41.0,10.4,29,30.30,10.0,North,4.6,-,N/A,,Clear,350,2012-11-05 12:55:00
6:15 AM,41.0,10.4,29,30.30,10.0,North,6.9,-,N/A,,Clear,360,2012-11-05 13:15:00
6:35 AM,39.2,10.4,31,30.31,10.0,NNW,8.1,-,N/A,,Clear,340,2012-11-05 13:35:00
6:55 AM,41.0,10.4,29,30.31,10.0,North,10.4,-,N/A,,Clear,360,2012-11-05 13:55:00
7:15 AM,46.4,10.4,23,30.31,10.0,North,9.2,-,N/A,,Clear,350,2012-11-05 14:15:00
7:35 AM,50.0,12.2,22,30.32,10.0,North,8.1,-,N/A,,Clear,350,2012-11-05 14:35:00
7:55 AM,55.4,12.2,18,30.33,10.0,NNW,5.8,-,N/A,,Clear,330,2012-11-05 14:55:00
8:15 AM,59.0,12.2,16,30.33,10.0,NNW,3.5,-,N/A,,Clear,330,2012-11-05 15:15:00
8:35 AM,62.6,12.2,14,30.33,10.0,WNW,4.6,-,N/A,,Clear,300,2012-11-05 15:35:00
8:55 AM,62.6,14.0,15,30.34,10.0,WNW,3.5,-,N/A,,Clear,290,2012-11-05 15:55:00
9:15 AM,64.4,10.4,12,30.34,10.0,Calm,Calm,-,N/A,,Clear,0,2012-11-05 16:15:00
9:35 AM,66.2,10.4,11,30.34,10.0,South,3.5,-,N/A,,Clear,190,2012-11-05 16:35:00
9:55 AM,68.0,12.2,12,30.34,10.0,West,3.5,-,N/A,,Clear,260,2012-11-05 16:55:00
10:15 AM,68.0,10.4,11,30.34,10.0,South,5.8,-,N/A,,Clear,170,2012-11-05 17:15:00
10:35 AM,69.8,10.4,10,30.33,10.0,SSW,3.5,-,N/A,,Clear,210,2012-11-05 17:35:00
10:55 AM,69.8,12.2,11,30.33,10.0,SW,6.9,-,N/A,,Clear,220,2012-11-05 17:55:00
11:15 AM,71.6,10.4,9,30.32,10.0,SE,3.5,-,N/A,,Clear,140,2012-11-05 18:15:00
11:35 AM,71.6,10.4,9,30.31,10.0,SW,5.8,-,N/A,,Clear,220,2012-11-05 18:35:00
11:55 AM,71.6,12.2,10,30.30,10.0,South,6.9,-,N/A,,Clear,190,2012-11-05 18:55:00
12:15 PM,71.6,12.2,10,30.29,10.0,South,5.8,-,N/A,,Clear,180,2012-11-05 19:15:00
12:35 PM,73.4,12.2,10,30.27,10.0,SW,8.1,-,N/A,,Clear,230,2012-11-05 19:35:00
12:55 PM,71.6,12.2,10,30.26,10.0,South,5.8,-,N/A,,Clear,180,2012-11-05 19:55:00
1:15 PM,73.4,14.0,10,30.25,10.0,SSW,11.5,-,N/A,,Clear,210,2012-11-05 20:15:00
1:35 PM,73.4,14.0,10,30.25,10.0,South,5.8,-,N/A,,Clear,170,2012-11-05 20:35:00
1:55 PM,73.4,14.0,10,30.24,10.0,SW,6.9,17.3,N/A,,Clear,220,2012-11-05 20:55:00
2:15 PM,73.4,15.8,11,30.24,10.0,SSW,9.2,16.1,N/A,,Clear,200,2012-11-05 21:15:00
2:35 PM,73.4,15.8,11,30.24,10.0,SSW,6.9,-,N/A,,Clear,200,2012-11-05 21:35:00
2:55 PM,75.2,15.8,11,30.23,10.0,South,6.9,-,N/A,,Clear,190,2012-11-05 21:55:00
3:15 PM,75.2,15.8,11,30.23,10.0,SSW,9.2,-,N/A,,Clear,210,2012-11-05 22:15:00
3:35 PM,73.4,14.0,10,30.23,10.0,SW,6.9,-,N/A,,Clear,220,2012-11-05 22:35:00
3:55 PM,73.4,14.0,10,30.23,10.0,SW,6.9,-,N/A,,Clear,220,2012-11-05 22:55:00
4:15 PM,73.4,14.0,10,30.23,10.0,SW,10.4,-,N/A,,Clear,230,2012-11-05 23:15:00
4:35 PM,73.4,14.0,10,30.23,10.0,WNW,9.2,-,N/A,,Clear,300,2012-11-05 23:35:00
4:55 PM,71.6,14.0,11,30.23,10.0,WNW,9.2,-,N/A,,Clear,300,2012-11-05 23:55:00
5:15 PM,68.0,14.0,12,30.23,10.0,WNW,10.4,-,N/A,,Clear,300,2012-11-06 00:15:00
5:35 PM,64.4,14.0,14,30.24,10.0,WNW,9.2,-,N/A,,Clear,300,2012-11-06 00:35:00
5:55 PM,59.0,12.2,16,30.25,10.0,NW,6.9,-,N/A,,Clear,310,2012-11-06 00:55:00
6:15 PM,57.2,12.2,17,30.26,10.0,WNW,6.9,-,N/A,,Clear,300,2012-11-06 01:15:00
6:35 PM,53.6,10.4,18,30.26,10.0,WNW,6.9,-,N/A,,Clear,300,2012-11-06 01:35:00
6:55 PM,51.8,10.4,19,30.26,10.0,NW,10.4,-,N/A,,Clear,320,2012-11-06 01:55:00
7:15 PM,55.4,14.0,20,30.27,10.0,North,9.2,-,N/A,,Clear,350,2012-11-06 02:15:00
7:35 PM,53.6,14.0,21,30.27,10.0,North,11.5,-,N/A,,Clear,350,2012-11-06 02:35:00
7:55 PM,51.8,14.0,22,30.28,10.0,North,10.4,-,N/A,,Clear,350,2012-11-06 02:55:00
8:15 PM,55.4,14.0,20,30.28,10.0,North,11.5,-,N/A,,Clear,350,2012-11-06 03:15:00
8:35 PM,53.6,14.0,21,30.27,10.0,North,11.5,-,N/A,,Clear,350,2012-11-06 03:35:00
8:55 PM,53.6,14.0,21,30.27,10.0,North,10.4,-,N/A,,Clear,350,2012-11-06 03:55:00
9:15 PM,51.8,14.0,22,30.28,10.0,North,9.2,-,N/A,,Clear,350,2012-11-06 04:15:00
9:35 PM,50.0,14.0,24,30.28,10.0,NNW,8.1,-,N/A,,Clear,330,2012-11-06 04:35:00
9:55 PM,50.0,14.0,24,30.27,10.0,NNW,10.4,-,N/A,,Clear,340,2012-11-06 04:55:00
10:15 PM,48.2,14.0,25,30.27,10.0,NNW,8.1,-,N/A,,Clear,330,2012-11-06 05:15:00
10:35 PM,44.6,14.0,29,30.27,10.0,NNW,10.4,-,N/A,,Clear,340,2012-11-06 05:35:00
10:55 PM,46.4,14.0,27,30.27,10.0,North,10.4,-,N/A,,Clear,350,2012-11-06 05:55:00
11:15 PM,46.4,14.0,27,30.27,10.0,Calm,Calm,-,N/A,,Clear,0,2012-11-06 06:15:00
11:35 PM,48.2,14.0,25,30.28,10.0,NNE,6.9,-,N/A,,Clear,20,2012-11-06 06:35:00
11:55 PM,46.4,14.0,27,30.28,10.0,NW,9.2,-,N/A,,Clear,320,2012-11-06 06:55:00